Reno, NV

1:37 PM PST on December 09, 2019 (GMT -0800)
Reno-Tahoe International

Weather History for KRNO - August, 2019

Change the Weather History Date:

Thursday, August 22, 2019

  Actual Average Record
Temperature  
Mean Temperature 76 °F 72 °F  
Max Temperature 88 °F 89 °F 101 °F (1982)
Min Temperature 64 °F 55 °F 29 °F (1968)
Degree Days  
Heating Degree Days 0 0  
Month to date heating degree days 0 0  
Since 1 June heating degree days 15 61  
Since 1 July heating degree days 0 5  
Cooling Degree Days 11 7  
Month to date cooling degree days 274 202  
Year to date cooling degree days 865 689  
Since 1 June cooling degree days 851 652  
Growing Degree Days 26 (Base 50)    
Moisture  
Dew Point 41 °F    
Average Humidity 30    
Maximum Humidity 41    
Minimum Humidity 17    
Precipitation  
Precipitation 0.00 in 0.01 in 0.32 in (1980)
Month to date precipitation T 0.18  
Year to date precipitation 8.76 4.64  
Snow  
Snow 0.00 in 0.00 in 0.00 in ()
Month to date snowfall 0.0 0.0  
Since 1 June snowfall 0.0 T  
Since 1 July snowfall 0.0 0.0  
Snow Depth 0.00 in    
Sea Level Pressure  
Sea Level Pressure 29.80 in    
Wind  
Wind Speed 5 mph ()    
Max Wind Speed 18 mph    
Max Gust Speed 21 mph    
Visibility 10.0 miles    
Events      
T = Trace of Precipitation, MM = Missing Value Source: Averaged Metar Reports

Daily Weather History Graph

Daily Weather History Graph

Search for Another Location

Airport or City:

Astronomy

Aug. 22, 2019 Rise Set
Actual Time 6:18 AM PDT 7:45 PM PDT
Civil Twilight 5:49 AM PDT 8:13 PM PDT
Nautical Twilight 5:15 AM PDT 8:47 PM PDT
Astronomical Twilight 4:39 AM PDT 9:22 PM PDT
Moon 11:40 PM PDT (8/22) 12:56 PM PDT (8/22)
Length of Visible Light 14h 23m
Length of Day
13h 27m
Waning Gibbous, 58% of the Moon is Illuminated
Aug 22
Waning Gibbous
Aug 23
Last Quarter
Aug 30
New
Sep 5
First Quarter
Sep 13
Full

Hourly Weather History & Observations

Time (PDT) Temp. Dew Point Humidity Pressure Visibility Wind Dir Wind Speed Gust Speed Precip Events Conditions
12:55 AM 72.0 °F 34.0 °F 25% 29.83 in 10.0 mi North 8.1 mph - N/A   Mostly Cloudy
1:55 AM 71.1 °F 36.0 °F 28% 29.81 in 10.0 mi NE 10.4 mph - N/A   Mostly Cloudy
2:55 AM 69.1 °F 39.0 °F 33% 29.81 in 10.0 mi East 3.5 mph - N/A   Mostly Cloudy
3:55 AM 64.9 °F 36.0 °F 34% 29.81 in 10.0 mi South 4.6 mph - N/A   Mostly Cloudy
4:55 AM 66.0 °F 36.0 °F 33% 29.82 in 10.0 mi Calm Calm - N/A   Mostly Cloudy
5:55 AM 66.0 °F 37.0 °F 34% 29.83 in 10.0 mi NW 3.5 mph - N/A   Mostly Cloudy
6:55 AM 64.9 °F 39.0 °F 39% 29.85 in 10.0 mi West 4.6 mph - N/A   Mostly Cloudy
7:55 AM 68.0 °F 41.0 °F 37% 29.86 in 10.0 mi West 5.8 mph - N/A   Scattered Clouds
8:55 AM 72.0 °F 46.0 °F 40% 29.85 in 10.0 mi Calm Calm - N/A   Partly Cloudy
9:55 AM 75.0 °F 48.9 °F 40% 29.84 in 10.0 mi SW 3.5 mph - N/A   Partly Cloudy
10:55 AM 77.0 °F 51.1 °F 40% 29.83 in 10.0 mi Calm Calm - N/A   Scattered Clouds
11:55 AM 79.0 °F 50.0 °F 36% 29.83 in 10.0 mi SE 8.1 mph - N/A   Mostly Cloudy
12:55 PM 84.0 °F 50.0 °F 31% 29.80 in 10.0 mi NNE 6.9 mph - N/A   Scattered Clouds
1:55 PM 84.0 °F 48.9 °F 29% 29.78 in 10.0 mi Variable 3.5 mph - N/A   Scattered Clouds
2:55 PM 84.9 °F 48.9 °F 29% 29.76 in 10.0 mi ENE 3.5 mph - N/A   Mostly Cloudy
4:55 PM 87.1 °F 48.0 °F 26% 29.73 in 10.0 mi NNE 6.9 mph - N/A   Scattered Clouds
5:55 PM 87.1 °F 46.0 °F 24% 29.73 in 10.0 mi North 10.4 mph - N/A   Scattered Clouds
6:55 PM 84.0 °F 42.1 °F 23% 29.75 in 10.0 mi NNE 12.7 mph - N/A   Scattered Clouds
7:55 PM 81.0 °F 32.0 °F 17% 29.76 in 10.0 mi North 9.2 mph - N/A   Scattered Clouds
8:55 PM 79.0 °F 30.9 °F 17% 29.78 in 10.0 mi North 4.6 mph - N/A   Partly Cloudy
9:55 PM 78.1 °F 32.0 °F 19% 29.79 in 10.0 mi WNW 5.8 mph - N/A   Partly Cloudy
10:55 PM 73.9 °F 36.0 °F 25% 29.80 in 10.0 mi Calm Calm - N/A   Clear
11:55 PM 73.0 °F 35.1 °F 25% 29.81 in 10.0 mi SW 3.5 mph - N/A   Clear